QPF
0.01 0.01 0.02 0.01 0.01 0.01 0.01 0.02 0.03 0.02 0.01 0.01 0.01 0.01 0.01 0.01 0.02 0.02 0.02 0.02 0.03 0.02 0.02 0.01 0.02 0.02 0.02 0.02 0.02 0.03 0.03 0.05 0.05 0.04 0.04 0.04 0.04 0.04 0.04 0.05 0.05 0.06 0.07
0.01 0.01 0.01 0.01 0.01 0.01 0.01 0.02 0.03 0.02 0.02 0.02 0.01 0.01 0.01 0.02 0.01 0.02 0.03 0.03 0.02 0.02 0.01 0.01 0.01 0.01 0.02 0.02 0.02 0.02 0.03 0.03 0.04 0.03 0.03 0.02 0.03 0.03 0.03 0.03 0.04 0.05 0.06
0.01 0.01 0.01 0.01 0.01 0.01 0.01 0.01 0.01 0.02 0.02 0.01 0.01 0.01 0.01 0.01 0.01 0.00 0.01 0.02 0.01 0.01 0.01 0.01 0.01 0.00 0.01 0.01 0.01 0.01 0.01 0.02 0.02 0.03 0.02 0.02 0.02 0.02 0.03 0.03 0.04 0.05 0.05
0.01 0.02 0.01 0.01 0.02 0.01 0.01 0.01 0.01 0.01 0.01 0.00 0.00 0.00 0.00 0.00 0.00 0.00 0.00 0.00 0.00 0.00 0.00 0.00 0.00 0.00 0.00 0.00 0.01 0.01 0.01 0.01 0.02 0.04 0.05 0.05 0.05 0.04 0.05 0.05 0.05 0.05 0.06
0.01 0.01 0.01 0.01 0.01 0.02 0.01 0.00 0.00 0.00 0.00 0.00 0.00 0.00 0.00 0.00 0.00 0.00 0.00 0.00 0.00 0.00 0.00 0.00 0.00 0.00 0.00 0.00 0.00 0.01 0.01 0.01 0.02 0.03 0.04 0.05 0.05 0.05 0.05 0.05 0.05 0.05 0.05
0.00 0.00 0.00 0.00 0.00 0.01 0.00 0.00 0.00 0.00 0.00 0.00 0.00 0.00 0.00 0.00 0.00 0.00 0.00 0.00 0.00 0.00 0.00 0.00 0.00 0.00 0.00 0.00 0.00 0.00 0.00 0.01 0.01 0.01 0.02 0.02 0.03 0.04 0.04 0.04 0.05 0.06 0.07
0.00 0.00 0.00 0.00 0.00 0.00 0.00 0.00 0.00 0.00 0.00 0.00 0.00 0.00 0.00 0.00 0.00 0.00 0.00 0.00 0.00 0.00 0.00 0.00 0.00 0.00 0.00 0.00 0.00 0.00 0.00 0.00 0.01 0.01 0.01 0.01 0.01 0.02 0.02 0.02 0.03 0.04 0.05
0.00 0.00 0.00 0.00 0.00 0.00 0.00 0.00 0.00 0.00 0.00 0.00 0.00 0.00 0.00 0.00 0.00 0.00 0.00 0.00 0.00 0.00 0.00 0.00 0.00 0.00 0.00 0.00 0.00 0.00 0.00 0.00 0.00 0.00 0.00 0.00 0.00 0.01 0.01 0.02 0.02 0.02 0.02
0.00 0.00 0.00 0.00 0.00 0.00 0.00 0.00 0.00 0.00 0.00 0.00 0.00 0.00 0.00 0.00 0.00 0.00 0.00 0.00 0.00 0.00 0.00 0.00 0.00 0.00 0.00 0.00 0.00 0.00 0.00 0.00 0.00 0.00 0.00 0.00 0.00 0.01 0.01 0.01 0.01 0.01 0.01
0.00 0.00 0.00 0.00 0.00 0.00 0.00 0.00 0.00 0.00 0.00 0.00 0.00 0.00 0.00 0.00 0.00 0.00 0.00 0.00 0.00 0.00 0.00 0.00 0.00 0.00 0.00 0.00 0.00 0.00 0.00 0.00 0.00 0.00 0.00 0.00 0.00 0.00 0.00 0.01 0.01 0.02 0.02
0.00 0.00 0.00 0.00 0.00 0.00 0.00 0.00 0.00 0.00 0.00 0.00 0.00 0.00 0.00 0.00 0.00 0.00 0.00 0.00 0.00 0.00 0.00 0.00 0.00 0.00 0.00 0.00 0.01 0.00 0.01 0.00 0.00 0.00 0.00 0.00 0.00 0.00 0.00 0.00 0.00 0.01 0.02
0.00 0.00 0.00 0.00 0.00 0.00 0.00 0.00 0.00 0.00 0.00 0.00 0.00 0.00 0.00 0.00 0.00 0.00 0.00 0.00 0.00 0.00 0.00 0.00 0.00 0.00 0.00 0.00 0.00 0.00 0.00 0.01 0.00 0.00 0.00 0.00 0.00 0.00 0.00 0.00 0.00 0.00 0.01
0.00 0.00 0.00 0.00 0.00 0.00 0.00 0.00 0.00 0.00 0.00 0.00 0.00 0.00 0.00 0.00 0.00 0.00 0.00 0.00 0.00 0.00 0.00 0.00 0.00 0.00 0.00 0.00 0.00 0.00 0.00 0.00 0.00 0.01 0.00 0.00 0.00 0.00 0.00 0.00 0.00 0.00 0.00
0.00 0.00 0.00 0.00 0.00 0.00 0.00 0.00 0.00 0.00 0.00 0.00 0.00 0.00 0.00 0.00 0.00 0.00 0.00 0.00 0.00 0.00 0.00 0.00 0.00 0.00 0.00 0.00 0.00 0.00 0.00 0.00 0.00 0.01 0.00 0.00 0.00 0.00 0.00 0.00 0.00 0.00 0.00
0.00 0.00 0.00 0.00 0.00 0.00 0.00 0.00 0.00 0.00 0.00 0.00 0.00 0.00 0.00 0.00 0.00 0.00 0.00 0.00 0.00 0.00 0.00 0.00 0.00 0.00 0.00 0.00 0.00 0.00 0.00 0.00 0.00 0.00 0.00 0.01 0.01 0.00 0.00 0.00 0.00 0.01 0.01
0.00 0.00 0.00 0.00 0.00 0.00 0.00 0.00 0.00 0.00 0.00 0.00 0.00 0.00 0.00 0.00 0.00 0.00 0.00 0.00 0.00 0.00 0.00 0.00 0.00 0.00 0.00 0.00 0.00 0.00 0.00 0.00 0.00 0.01 0.01 0.01 0.01 0.01 0.00 0.00 0.00 0.01 0.01
0.00 0.00 0.00 0.00 0.00 0.00 0.00 0.00 0.00 0.00 0.00 0.00 0.00 0.00 0.00 0.00 0.00 0.00 0.00 0.00 0.00 0.00 0.00 0.00 0.00 0.00 0.00 0.00 0.00 0.00 0.00 0.00 0.00 0.01 0.01 0.01 0.01 0.01 0.01 0.01 0.01 0.01 0.01
0.00 0.00 0.00 0.00 0.00 0.00 0.00 0.00 0.00 0.00 0.00 0.00 0.00 0.00 0.00 0.00 0.00 0.00 0.00 0.00 0.00 0.00 0.00 0.00 0.00 0.00 0.00 0.00 0.01 0.01 0.01 0.01 0.01 0.01 0.01 0.01 0.01 0.01 0.01 0.01 0.01 0.01 0.01
0.00 0.00 0.00 0.00 0.00 0.00 0.00 0.00 0.00 0.00 0.00 0.00 0.00 0.00 0.00 0.00 0.00 0.00 0.00 0.00 0.00 0.00 0.00 0.00 0.00 0.00 0.01 0.01 0.01 0.01 0.01 0.01 0.01 0.01 0.01 0.01 0.01 0.02 0.02 0.01 0.01 0.01 0.01
0.00 0.00 0.00 0.00 0.00 0.00 0.00 0.00 0.00 0.00 0.00 0.00 0.00 0.00 0.00 0.00 0.00 0.00 0.00 0.00 0.00 0.00 0.00 0.00 0.00 0.00 0.01 0.01 0.01 0.01 0.01 0.01 0.01 0.01 0.01 0.01 0.01 0.02 0.02 0.02 0.01 0.02 0.02
0.00 0.00 0.00 0.00 0.00 0.00 0.00 0.00 0.00 0.00 0.01 0.01 0.00 0.00 0.00 0.00 0.00 0.00 0.00 0.00 0.00 0.00 0.00 0.00 0.00 0.00 0.01 0.01 0.01 0.01 0.02 0.01 0.01 0.02 0.02 0.01 0.02 0.02 0.02 0.02 0.02 0.02 0.02
0.00 0.00 0.00 0.00 0.00 0.00 0.01 0.01 0.01 0.01 0.01 0.00 0.00 0.00 0.00 0.00 0.00 0.00 0.00 0.00 0.00 0.00 0.00 0.01 0.01 0.01 0.01 0.01 0.02 0.02 0.02 0.02 0.02 0.02 0.02 0.02 0.02 0.02 0.02 0.02 0.02 0.02 0.03
0.00 0.00 0.00 0.00 0.01 0.01 0.01 0.01 0.01 0.01 0.00 0.00 0.00 0.00 0.00 0.00 0.00 0.00 0.00 0.00 0.00 0.00 0.00 0.01 0.01 0.01 0.01 0.02 0.02 0.03 0.04 0.03 0.03 0.03 0.03 0.03 0.02 0.03 0.03 0.03 0.03 0.03 0.03
0.00 0.00 0.00 0.00 0.00 0.01 0.01 0.00 0.00 0.00 0.00 0.00 0.00 0.00 0.00 0.00 0.00 0.00 0.00 0.00 0.00 0.00 0.00 0.01 0.01 0.01 0.01 0.02 0.03 0.03 0.03 0.04 0.05 0.05 0.04 0.04 0.04 0.03 0.03 0.03 0.03 0.03 0.03
0.00 0.00 0.00 0.00 0.00 0.00 0.00 0.00 0.00 0.00 0.00 0.00 0.00 0.00 0.00 0.00 0.00 0.00 0.00 0.00 0.00 0.00 0.00 0.00 0.01 0.01 0.01 0.02 0.02 0.03 0.03 0.04 0.05 0.07 0.07 0.06 0.04 0.04 0.04 0.04 0.03 0.04 0.04
0.00 0.00 0.00 0.00 0.00 0.00 0.00 0.00 0.00 0.00 0.00 0.00 0.00 0.00 0.00 0.00 0.00 0.00 0.00 0.00 0.00 0.00 0.00 0.00 0.00 0.01 0.01 0.02 0.02 0.02 0.03 0.03 0.04 0.05 0.07 0.07 0.05 0.04 0.04 0.04 0.04 0.04 0.04
MSLP
1022.31 1022.47 1022.66 1022.84 1023.00 1023.11 1023.15 1023.13 1023.07 1022.96 1022.83 1022.68 1022.52 1022.34 1022.14 1021.93 1021.70 1021.45 1021.21 1020.98 1020.76 1020.57 1020.40 1020.22 1020.03 1019.79 1019.49 1019.11 1018.65 1018.12 1017.53 1016.92 1016.29 1015.69 1015.12 1014.60 1014.11 1013.65 1013.18 1012.70 1012.18 1011.59 1010.94
1021.76 1021.96 1022.19 1022.44 1022.66 1022.83 1022.94 1022.99 1022.98 1022.93 1022.83 1022.70 1022.54 1022.36 1022.15 1021.91 1021.65 1021.37 1021.08 1020.81 1020.54 1020.30 1020.07 1019.85 1019.61 1019.35 1019.05 1018.69 1018.26 1017.78 1017.25 1016.69 1016.12 1015.56 1015.02 1014.50 1014.00 1013.52 1013.04 1012.55 1012.03 1011.46 1010.83
1021.08 1021.33 1021.62 1021.92 1022.20 1022.43 1022.61 1022.72 1022.76 1022.75 1022.68 1022.58 1022.43 1022.24 1022.02 1021.76 1021.48 1021.17 1020.86 1020.55 1020.25 1019.97 1019.71 1019.45 1019.19 1018.92 1018.62 1018.27 1017.87 1017.43 1016.95 1016.43 1015.90 1015.36 1014.82 1014.29 1013.78 1013.28 1012.78 1012.27 1011.75 1011.19 1010.59
1020.28 1020.59 1020.93 1021.28 1021.61 1021.90 1022.13 1022.29 1022.38 1022.41 1022.38 1022.29 1022.16 1021.98 1021.75 1021.49 1021.20 1020.89 1020.57 1020.25 1019.94 1019.64 1019.36 1019.09 1018.82 1018.54 1018.24 1017.91 1017.53 1017.11 1016.66 1016.16 1015.64 1015.10 1014.55 1014.01 1013.47 1012.94 1012.41 1011.90 1011.37 1010.83 1010.27
1019.41 1019.76 1020.14 1020.53 1020.91 1021.24 1021.51 1021.72 1021.86 1021.93 1021.93 1021.87 1021.76 1021.60 1021.39 1021.14 1020.86 1020.56 1020.25 1019.93 1019.63 1019.33 1019.05 1018.77 1018.50 1018.22 1017.92 1017.59 1017.22 1016.81 1016.35 1015.86 1015.33 1014.78 1014.21 1013.64 1013.08 1012.53 1011.99 1011.47 1010.96 1010.45 1009.92
1018.51 1018.88 1019.30 1019.72 1020.12 1020.49 1020.80 1021.05 1021.23 1021.35 1021.39 1021.37 1021.29 1021.15 1020.97 1020.74 1020.48 1020.20 1019.90 1019.60 1019.31 1019.02 1018.75 1018.47 1018.20 1017.91 1017.60 1017.26 1016.88 1016.46 1016.00 1015.49 1014.95 1014.38 1013.79 1013.21 1012.63 1012.08 1011.55 1011.04 1010.55 1010.07 1009.58
1017.63 1018.02 1018.44 1018.88 1019.31 1019.70 1020.05 1020.35 1020.57 1020.73 1020.82 1020.85 1020.80 1020.70 1020.54 1020.34 1020.10 1019.83 1019.55 1019.26 1018.98 1018.69 1018.41 1018.14 1017.85 1017.55 1017.23 1016.87 1016.47 1016.03 1015.54 1015.02 1014.46 1013.88 1013.30 1012.71 1012.15 1011.61 1011.11 1010.63 1010.18 1009.74 1009.29
1016.82 1017.21 1017.64 1018.08 1018.52 1018.94 1019.32 1019.66 1019.93 1020.15 1020.29 1020.36 1020.35 1020.28 1020.15 1019.96 1019.74 1019.47 1019.19 1018.90 1018.61 1018.31 1018.02 1017.72 1017.41 1017.09 1016.74 1016.35 1015.93 1015.47 1014.96 1014.43 1013.87 1013.30 1012.72 1012.17 1011.64 1011.14 1010.68 1010.25 1009.84 1009.44 1009.03
1016.14 1016.51 1016.92 1017.36 1017.81 1018.25 1018.66 1019.04 1019.37 1019.63 1019.82 1019.94 1019.97 1019.93 1019.81 1019.63 1019.39 1019.12 1018.82 1018.50 1018.18 1017.85 1017.53 1017.20 1016.86 1016.51 1016.12 1015.71 1015.27 1014.79 1014.27 1013.74 1013.19 1012.64 1012.11 1011.59 1011.11 1010.67 1010.26 1009.88 1009.52 1009.16 1008.78
1015.59 1015.93 1016.32 1016.75 1017.20 1017.65 1018.10 1018.51 1018.89 1019.20 1019.43 1019.59 1019.65 1019.62 1019.50 1019.30 1019.04 1018.74 1018.40 1018.05 1017.68 1017.32 1016.96 1016.59 1016.22 1015.83 1015.43 1014.99 1014.53 1014.04 1013.53 1013.01 1012.49 1011.97 1011.48 1011.02 1010.60 1010.21 1009.86 1009.53 1009.20 1008.87 1008.51
1015.18 1015.48 1015.84 1016.25 1016.70 1017.17 1017.63 1018.08 1018.49 1018.84 1019.11 1019.28 1019.35 1019.31 1019.18 1018.96 1018.67 1018.32 1017.94 1017.54 1017.13 1016.73 1016.33 1015.94 1015.54 1015.13 1014.70 1014.26 1013.79 1013.30 1012.80 1012.30 1011.81 1011.33 1010.89 1010.48 1010.10 1009.77 1009.45 1009.15 1008.86 1008.54 1008.18
1014.87 1015.13 1015.47 1015.86 1016.30 1016.77 1017.25 1017.72 1018.15 1018.51 1018.79 1018.97 1019.03 1018.98 1018.82 1018.57 1018.23 1017.84 1017.42 1016.99 1016.55 1016.12 1015.70 1015.29 1014.88 1014.46 1014.03 1013.58 1013.12 1012.64 1012.16 1011.68 1011.21 1010.77 1010.36 1009.98 1009.64 1009.33 1009.04 1008.76 1008.46 1008.14 1007.77
1014.65 1014.87 1015.18 1015.55 1015.98 1016.45 1016.93 1017.40 1017.83 1018.19 1018.47 1018.63 1018.67 1018.59 1018.39 1018.10 1017.73 1017.31 1016.86 1016.41 1015.96 1015.52 1015.10 1014.70 1014.29 1013.89 1013.47 1013.03 1012.58 1012.11 1011.64 1011.17 1010.72 1010.29 1009.90 1009.54 1009.21 1008.91 1008.62 1008.33 1008.02 1007.68 1007.29
1014.47 1014.66 1014.94 1015.30 1015.72 1016.17 1016.64 1017.10 1017.51 1017.85 1018.10 1018.23 1018.23 1018.11 1017.88 1017.56 1017.17 1016.73 1016.28 1015.83 1015.40 1014.98 1014.59 1014.21 1013.83 1013.44 1013.04 1012.62 1012.17 1011.71 1011.23 1010.77 1010.31 1009.89 1009.49 1009.13 1008.80 1008.48 1008.18 1007.87 1007.54 1007.17 1006.75
1014.29 1014.47 1014.74 1015.08 1015.49 1015.93 1016.38 1016.81 1017.19 1017.49 1017.69 1017.78 1017.73 1017.58 1017.31 1016.97 1016.57 1016.15 1015.71 1015.29 1014.90 1014.52 1014.17 1013.83 1013.48 1013.12 1012.73 1012.31 1011.87 1011.39 1010.91 1010.43 1009.96 1009.51 1009.10 1008.72 1008.37 1008.04 1007.71 1007.38 1007.02 1006.63 1006.19
1014.11 1014.28 1014.55 1014.88 1015.28 1015.70 1016.13 1016.52 1016.86 1017.12 1017.27 1017.30 1017.21 1017.02 1016.74 1016.39 1016.00 1015.60 1015.20 1014.83 1014.48 1014.15 1013.85 1013.54 1013.22 1012.87 1012.49 1012.06 1011.60 1011.10 1010.59 1010.07 1009.58 1009.10 1008.66 1008.27 1007.90 1007.55 1007.21 1006.87 1006.50 1006.09 1005.65
1013.89 1014.07 1014.34 1014.68 1015.07 1015.48 1015.89 1016.25 1016.55 1016.75 1016.85 1016.84 1016.72 1016.50 1016.20 1015.86 1015.49 1015.13 1014.78 1014.45 1014.15 1013.87 1013.60 1013.31 1013.00 1012.65 1012.25 1011.79 1011.28 1010.74 1010.19 1009.63 1009.10 1008.60 1008.14 1007.73 1007.35 1007.00 1006.67 1006.32 1005.96 1005.56 1005.12
1013.63 1013.83 1014.12 1014.47 1014.86 1015.27 1015.65 1015.99 1016.25 1016.42 1016.48 1016.43 1016.28 1016.05 1015.76 1015.43 1015.10 1014.77 1014.46 1014.18 1013.91 1013.66 1013.40 1013.11 1012.77 1012.38 1011.93 1011.42 1010.85 1010.26 1009.65 1009.05 1008.48 1007.96 1007.49 1007.07 1006.71 1006.38 1006.06 1005.75 1005.41 1005.03 1004.61
1013.34 1013.57 1013.87 1014.24 1014.65 1015.06 1015.43 1015.75 1015.99 1016.12 1016.16 1016.09 1015.93 1015.70 1015.42 1015.12 1014.82 1014.52 1014.25 1013.99 1013.74 1013.49 1013.20 1012.87 1012.49 1012.03 1011.50 1010.91 1010.27 1009.61 1008.95 1008.30 1007.71 1007.17 1006.70 1006.31 1005.96 1005.67 1005.39 1005.11 1004.81 1004.47 1004.09
1013.03 1013.29 1013.62 1014.01 1014.43 1014.84 1015.21 1015.52 1015.74 1015.86 1015.89 1015.82 1015.66 1015.45 1015.20 1014.93 1014.65 1014.39 1014.13 1013.88 1013.62 1013.33 1012.99 1012.59 1012.12 1011.57 1010.95 1010.26 1009.54 1008.80 1008.08 1007.40 1006.79 1006.25 1005.80 1005.43 1005.12 1004.87 1004.64 1004.41 1004.16 1003.86 1003.51
1012.73 1013.00 1013.36 1013.76 1014.19 1014.61 1014.98 1015.28 1015.50 1015.63 1015.65 1015.59 1015.46 1015.27 1015.05 1014.81 1014.57 1014.32 1014.07 1013.80 1013.51 1013.16 1012.74 1012.25 1011.67 1011.01 1010.28 1009.49 1008.68 1007.87 1007.10 1006.39 1005.76 1005.23 1004.81 1004.47 1004.21 1004.00 1003.82 1003.63 1003.42 1003.16 1002.83
1012.44 1012.73 1013.10 1013.52 1013.95 1014.37 1014.74 1015.04 1015.26 1015.39 1015.43 1015.39 1015.29 1015.13 1014.95 1014.74 1014.52 1014.28 1014.02 1013.73 1013.37 1012.95 1012.45 1011.85 1011.15 1010.38 1009.54 1008.65 1007.76 1006.89 1006.07 1005.34 1004.70 1004.18 1003.78 1003.47 1003.24 1003.07 1002.93 1002.77 1002.59 1002.36 1002.06
1012.19 1012.49 1012.87 1013.29 1013.72 1014.13 1014.49 1014.79 1015.01 1015.14 1015.20 1015.18 1015.11 1014.99 1014.84 1014.66 1014.46 1014.23 1013.95 1013.61 1013.20 1012.70 1012.10 1011.39 1010.59 1009.71 1008.76 1007.79 1006.83 1005.90 1005.05 1004.30 1003.67 1003.15 1002.76 1002.48 1002.27 1002.12 1002.00 1001.87 1001.70 1001.48 1001.19
1011.98 1012.30 1012.67 1013.08 1013.50 1013.89 1014.24 1014.52 1014.73 1014.87 1014.94 1014.95 1014.90 1014.82 1014.70 1014.54 1014.35 1014.11 1013.81 1013.44 1012.96 1012.39 1011.70 1010.90 1010.00 1009.03 1008.00 1006.96 1005.95 1004.98 1004.11 1003.35 1002.71 1002.20 1001.82 1001.54 1001.34 1001.19 1001.07 1000.94 1000.78 1000.57 1000.29
1011.83 1012.15 1012.52 1012.91 1013.30 1013.67 1013.99 1014.25 1014.45 1014.59 1014.66 1014.68 1014.66 1014.60 1014.50 1014.36 1014.18 1013.93 1013.60 1013.19 1012.66 1012.02 1011.26 1010.38 1009.41 1008.37 1007.29 1006.21 1005.16 1004.17 1003.29 1002.52 1001.87 1001.36 1000.98 1000.69 1000.48 1000.33 1000.19 1000.06 999.89 999.68 999.42
1011.71 1012.03 1012.39 1012.77 1013.14 1013.47 1013.76 1014.00 1014.18 1014.31 1014.38 1014.40 1014.39 1014.34 1014.25 1014.12 1013.93 1013.66 1013.32 1012.86 1012.29 1011.60 1010.79 1009.86 1008.85 1007.77 1006.66 1005.55 1004.49 1003.50 1002.61 1001.83 1001.19 1000.67 1000.27 999.97 999.74 999.57 999.42 999.27 999.10 998.89 998.65
Thickness
5518 5517 5515 5513 5512 5510 5509 5507 5505 5504 5502 5501 5500 5499 5498 5497 5497 5497 5496 5495 5494 5493 5493 5493 5493 5493 5494 5494 5495 5496 5496 5497 5501 5506 5507 5508 5509 5511 5514 5517 5521 5525 5529
5512 5510 5508 5506 5504 5503 5502 5500 5497 5495 5493 5492 5491 5490 5488 5487 5486 5486 5485 5484 5483 5481 5480 5480 5479 5480 5480 5480 5480 5480 5480 5482 5484 5488 5491 5492 5493 5495 5498 5502 5505 5509 5513
5507 5504 5502 5499 5497 5496 5494 5491 5489 5487 5485 5484 5482 5480 5479 5478 5477 5475 5474 5473 5471 5470 5468 5468 5466 5466 5466 5466 5466 5465 5465 5467 5468 5470 5473 5475 5476 5478 5482 5485 5489 5492 5497
5502 5500 5497 5495 5492 5489 5487 5484 5482 5479 5477 5475 5473 5471 5470 5468 5467 5465 5464 5463 5461 5459 5457 5456 5454 5453 5453 5452 5452 5451 5451 5451 5452 5453 5456 5457 5458 5460 5462 5466 5471 5474 5477
5498 5495 5493 5490 5487 5484 5480 5477 5474 5472 5469 5467 5465 5463 5461 5460 5458 5457 5455 5453 5450 5448 5446 5444 5442 5442 5441 5441 5440 5438 5437 5436 5437 5437 5439 5440 5441 5441 5441 5444 5448 5454 5459
5494 5492 5489 5485 5481 5478 5474 5471 5468 5465 5462 5459 5457 5455 5453 5452 5451 5450 5447 5443 5440 5437 5435 5432 5430 5429 5428 5427 5427 5426 5424 5422 5421 5420 5421 5421 5421 5420 5421 5423 5426 5431 5438
5491 5488 5484 5480 5476 5472 5469 5465 5461 5457 5454 5452 5449 5447 5444 5443 5442 5441 5438 5434 5430 5427 5424 5421 5419 5417 5415 5413 5412 5411 5409 5407 5406 5404 5403 5402 5402 5402 5403 5405 5406 5408 5414
5487 5483 5480 5475 5471 5467 5462 5458 5454 5450 5447 5444 5441 5438 5436 5434 5433 5431 5428 5424 5419 5416 5413 5410 5406 5404 5402 5401 5399 5396 5394 5391 5390 5388 5387 5386 5385 5384 5384 5385 5387 5391 5395
5483 5479 5475 5470 5465 5460 5456 5452 5448 5443 5440 5436 5434 5430 5427 5425 5424 5422 5419 5413 5409 5405 5402 5399 5396 5393 5392 5390 5387 5384 5381 5377 5375 5373 5371 5369 5368 5367 5365 5366 5366 5368 5374
5480 5476 5470 5465 5460 5455 5450 5446 5441 5437 5433 5430 5426 5422 5419 5416 5415 5413 5410 5404 5400 5396 5392 5388 5385 5383 5381 5378 5374 5370 5367 5364 5361 5358 5355 5352 5350 5348 5346 5344 5344 5345 5348
5476 5470 5465 5460 5454 5449 5444 5439 5434 5430 5426 5421 5418 5414 5410 5408 5405 5403 5400 5395 5390 5386 5382 5377 5373 5371 5369 5366 5362 5357 5353 5351 5347 5343 5339 5336 5334 5331 5329 5327 5325 5324 5325
5469 5463 5458 5453 5448 5443 5437 5432 5427 5421 5416 5412 5408 5404 5401 5398 5396 5392 5389 5385 5381 5376 5372 5367 5363 5360 5357 5353 5348 5344 5340 5336 5331 5327 5323 5320 5317 5315 5312 5310 5309 5308 5308
5461 5456 5451 5446 5440 5435 5429 5424 5418 5413 5408 5405 5401 5397 5393 5390 5385 5383 5379 5375 5371 5366 5361 5357 5353 5349 5344 5338 5334 5330 5325 5319 5314 5311 5308 5305 5301 5298 5296 5295 5295 5294 5294
5454 5449 5443 5437 5431 5426 5422 5417 5411 5406 5401 5398 5394 5390 5385 5380 5376 5372 5368 5364 5360 5355 5350 5346 5341 5336 5330 5325 5320 5314 5309 5304 5300 5296 5293 5290 5286 5284 5281 5279 5278 5279 5280
5446 5441 5435 5430 5424 5418 5414 5409 5405 5401 5395 5391 5387 5382 5377 5372 5369 5365 5360 5355 5350 5345 5341 5335 5328 5322 5316 5311 5306 5301 5296 5291 5286 5282 5278 5275 5273 5270 5267 5265 5263 5263 5264
5439 5433 5427 5421 5416 5410 5405 5400 5398 5393 5390 5386 5381 5376 5371 5367 5363 5357 5352 5347 5341 5336 5330 5322 5315 5309 5304 5299 5294 5289 5283 5278 5273 5269 5265 5261 5258 5255 5254 5252 5250 5250 5251
5432 5426 5420 5414 5408 5402 5397 5392 5387 5384 5380 5376 5372 5368 5363 5359 5354 5348 5343 5337 5332 5326 5317 5310 5303 5298 5293 5287 5282 5277 5272 5267 5262 5258 5254 5250 5246 5244 5242 5240 5239 5239 5241
5423 5419 5413 5406 5400 5395 5389 5384 5379 5374 5369 5365 5361 5358 5354 5349 5344 5339 5333 5327 5320 5314 5306 5300 5293 5287 5282 5276 5271 5266 5262 5257 5253 5249 5245 5240 5236 5234 5232 5231 5230 5230 5232
5414 5409 5403 5397 5392 5387 5381 5376 5370 5365 5360 5356 5351 5347 5344 5340 5334 5329 5323 5316 5310 5304 5297 5290 5284 5278 5272 5267 5261 5256 5252 5248 5244 5240 5237 5233 5229 5226 5225 5225 5224 5226 5227
5405 5401 5395 5388 5383 5378 5373 5367 5362 5357 5352 5347 5343 5338 5334 5329 5324 5319 5313 5307 5302 5295 5289 5282 5277 5270 5264 5258 5253 5248 5245 5241 5238 5234 5231 5227 5224 5221 5220 5220 5220 5221 5222
5395 5391 5387 5380 5375 5370 5365 5360 5355 5349 5344 5339 5335 5331 5327 5321 5316 5311 5305 5300 5294 5288 5282 5275 5269 5263 5258 5252 5247 5243 5239 5236 5233 5230 5227 5224 5221 5219 5218 5218 5218 5218 5218
5386 5382 5377 5372 5367 5362 5357 5352 5347 5342 5337 5332 5328 5323 5320 5314 5308 5303 5298 5293 5287 5281 5275 5269 5263 5258 5252 5247 5243 5239 5236 5233 5230 5227 5224 5222 5219 5218 5217 5216 5216 5216 5217
5378 5373 5368 5364 5359 5355 5350 5344 5339 5334 5329 5325 5320 5315 5311 5306 5301 5296 5291 5286 5280 5274 5269 5263 5258 5254 5249 5245 5241 5237 5234 5232 5229 5227 5224 5222 5220 5218 5217 5216 5216 5216 5218
5369 5364 5360 5355 5350 5346 5341 5336 5331 5327 5322 5317 5313 5308 5303 5298 5294 5289 5284 5279 5274 5269 5264 5259 5254 5250 5247 5243 5239 5236 5234 5232 5230 5228 5226 5224 5222 5220 5219 5219 5219 5219 5219
5360 5356 5352 5347 5343 5338 5333 5328 5324 5319 5314 5310 5305 5301 5296 5291 5287 5282 5277 5272 5268 5263 5259 5255 5251 5248 5245 5242 5239 5237 5235 5234 5232 5231 5229 5227 5226 5225 5223 5222 5222 5223 5223
5352 5348 5343 5339 5335 5330 5326 5321 5316 5312 5307 5303 5298 5293 5289 5284 5280 5276 5271 5266 5262 5258 5255 5252 5249 5246 5243 5241 5240 5238 5237 5237 5236 5234 5233 5232 5231 5230 5229 5228 5227 5228 5229